Location: London
(42.9830°N, 81.2500°W)
Time: 17:27:26
(UTC-04:00)

Amateur Radio Satellites - All Passes

Search period start: 26 April 2017 16:57
Search period end: 27 April 2017 16:57
Location: London, 42.9830°N, 81.2500°W

Satellite Date Start Highest point End Downlink Frequencies (MHz)
Time Altitude Azimuth
DOVE 4 26 Apr 17:00:46 17:03:40 15° 61° (ENE) 17:06:32 437.250
YUBILEINY 26 Apr 17:04:30 17:13:06 63° 268° (W) 17:21:42 435.215
MOZHAYETS 4 26 Apr 17:06:44 17:11:22 83° 283° (WNW) 17:15:59
BEESAT 26 Apr 17:11:31 17:15:58 40° 291° (WNW) 17:20:24 436.000
ITAMSAT 1 26 Apr 17:11:40 17:15:17 19° 268° (W) 17:18:55 435.822/435.867
KKS-1 26 Apr 17:21:11 17:24:50 24° 95° (E) 17:28:26 437.445
BEESAT 2 26 Apr 17:32:27 17:32:47 10° 326° (NNW) 17:33:08 435.950
XW-2D 26 Apr 17:33:20 17:34:54 12° 64° (ENE) 17:36:27 145.860 - 145.880
XW-2B 26 Apr 17:39:46 17:41:46 14° 65° (ENE) 17:43:47 145.730 - 145.750
LilacSat-2 26 Apr 17:49:42 17:52:25 19° 67° (ENE) 17:55:09 437.200
KAITUO 1B 26 Apr 17:49:43 17:51:48 15° 65° (ENE) 17:53:52 145.475/437.950
XW-2C 26 Apr 17:50:54 17:53:34 19° 67° (ENE) 17:56:15 145.795 - 145.815
ITUPSAT 1 26 Apr 17:52:57 17:56:10 18° 298° (WNW) 17:59:23 437.325
STARS 26 Apr 17:53:35 17:57:05 23° 95° (E) 18:00:34 437.465
CUBESAT XI-V 26 Apr 17:57:04 18:01:45 59° 101° (E) 18:06:24 437.345
AO-7 26 Apr 17:58:26 18:03:41 18° 270° (W) 18:08:58 .
XW-2F 26 Apr 18:15:42 18:19:05 34° 71° (ENE) 18:22:30 145.980 - 146.000
CUTE-I 26 Apr 18:16:09 18:21:11 43° 69° (ENE) 18:26:12 437.470
NUDT-PHONESAT 26 Apr 18:27:38 18:31:03 38° 72° (ENE) 18:34:29 437.300
RS-15 26 Apr 18:29:28 18:40:51 49° 250° (WSW) 18:51:44 29.354- 29.394
DOVE 4 26 Apr 18:35:21 18:40:40 82° 257° (WSW) 18:45:56 437.250
KKS-1 26 Apr 18:57:27 19:01:24 33° 292° (WNW) 19:05:21 437.445
XW-2D 26 Apr 19:05:00 19:08:38 51° 260° (W) 19:12:18 145.860 - 145.880
YUBILEINY 26 Apr 19:05:58 19:07:58 11° 289° (WNW) 19:09:57 435.215
HO-68 26 Apr 19:10:48 19:17:26 43° 64° (ENE) 19:24:07 435.675
XW-2B 26 Apr 19:12:01 19:15:36 43° 261° (W) 19:19:12 145.730 - 145.750
O/OREOS (USA 219) 26 Apr 19:12:46 19:12:49 10° 46° (NE) 19:12:53 437.305
KAITUO 1B 26 Apr 19:21:59 19:25:28 40° 262° (W) 19:28:59 145.475/437.950
LilacSat-2 26 Apr 19:23:11 19:26:30 30° 263° (W) 19:29:53 437.200
XW-2C 26 Apr 19:24:14 19:27:34 30° 263° (W) 19:30:55 145.795 - 145.815
STARS 26 Apr 19:29:33 19:33:28 33° 291° (WNW) 19:37:22 437.465
CUBEBUG 2 26 Apr 19:33:02 19:36:08 19° 66° (ENE) 19:39:09 437.445
CUBESAT XI-V 26 Apr 19:35:41 19:38:38 17° 297° (WNW) 19:41:35 437.345
XW-2F 26 Apr 19:50:59 19:53:20 16° 267° (W) 19:55:43 145.980 - 146.000
CUTE-I 26 Apr 19:56:58 20:01:22 26° 266° (W) 20:05:47 437.470
AAUSAT CUBESAT 2 26 Apr 19:57:03 20:00:18 23° 67° (ENE) 20:03:34 437.432
CUTE 1.7 + AOD 2 26 Apr 20:03:06 20:07:18 84° 78° (ENE) 20:11:34 437.475
NUDT-PHONESAT 26 Apr 20:03:13 20:05:09 14° 268° (W) 20:07:06 437.300
NO-84 26 Apr 20:06:00 20:09:30 39° 134° (SE) 20:12:44 435.350 FM
STRAND 1 26 Apr 20:07:00 20:11:20 27° 95° (E) 20:15:39 437.568
XW-2A 26 Apr 20:12:20 20:15:39 62° 259° (W) 20:18:59 145.665 - 145.685
ZACube-1 26 Apr 20:15:51 20:18:47 19° 66° (ENE) 20:21:43 437.345
DOVE 4 26 Apr 20:18:29 20:19:03 10° 274° (W) 20:19:35 437.250
AO-85 26 Apr 20:21:32 20:22:11 10° 35° (NE) 20:22:50 145.980
AO-73 26 Apr 20:22:37 20:25:40 20° 66° (ENE) 20:28:43 145.935
SEEDS 26 Apr 20:23:15 20:27:26 90° 268° (W) 20:31:41 437.485
M-CUBED/EXP-1 PRIME 26 Apr 20:34:50 20:38:35 31° 101° (E) 20:42:03 437.505
Oscar 11 26 Apr 20:37:42 20:41:13 25° 67° (ENE) 20:44:46 .
O/OREOS (USA 219) 26 Apr 20:48:31 20:53:07 72° 66° (ENE) 20:57:39 437.305
UWE-3 26 Apr 20:54:58 20:59:15 87° 72° (ENE) 21:03:28 435.000/436.395/437.385
HO-68 26 Apr 20:58:37 21:05:11 39° 263° (W) 21:11:48 435.675
CUBEBUG 2 26 Apr 21:08:22 21:12:29 40° 262° (W) 21:16:31 437.445
OBJECT BX 26 Apr 21:24:08 21:26:17 15° 66° (ENE) 21:28:26 145.990 - 145.960
AAUSAT CUBESAT 2 26 Apr 21:31:53 21:35:35 31° 264° (W) 21:39:20 437.432
NO-84 26 Apr 21:43:59 21:47:06 28° 330° (NNW) 21:50:00 435.350 FM
STRAND 1 26 Apr 21:45:54 21:50:35 37° 292° (WNW) 21:55:15 437.568
ZACube-1 26 Apr 21:50:53 21:54:49 38° 262° (W) 21:58:43 437.345
AO-73 26 Apr 21:57:51 22:01:42 35° 263° (W) 22:05:32 145.935
AO-85 26 Apr 21:59:21 22:03:19 67° 55° (NE) 22:07:25 145.980
M-CUBED/EXP-1 PRIME 26 Apr 22:09:27 22:12:51 24° 300° (WNW) 22:16:02 437.505
Oscar 11 26 Apr 22:13:27 22:17:14 30° 264° (W) 22:21:04 .
DELFI C3 26 Apr 22:15:15 22:19:14 86° 72° (ENE) 22:23:16 145.870
FO-29 26 Apr 22:18:01 22:18:35 10° 88° (E) 22:19:11 435.910
UNISAT 6 26 Apr 22:20:37 22:22:29 13° 90° (E) 22:24:21 437.425
LO-87 26 Apr 22:28:32 22:30:04 12° 64° (ENE) 22:31:37 145.935 - 145.965
O/OREOS (USA 219) 26 Apr 22:30:17 22:31:51 12° 263° (W) 22:33:25 437.305
BEESAT 2 26 Apr 22:30:24 22:32:47 15° 39° (NE) 22:35:08 435.950
BEESAT 3 26 Apr 22:30:45 22:34:19 29° 47° (NE) 22:37:50 437.485
OBJECT BX 26 Apr 22:56:17 22:59:40 36° 262° (W) 23:03:04 145.990 - 145.960
PRISM 26 Apr 23:21:03 23:25:15 87° 284° (WNW) 23:29:22 437.425
NO-84 26 Apr 23:24:42 23:25:28 11° 350° (N) 23:26:14 435.350 FM
TIGRISAT 26 Apr 23:34:00 23:38:17 74° 102° (ESE) 23:42:35 435.000
ESTCUBE 1 26 Apr 23:36:43 23:41:01 46° 71° (ENE) 23:45:21 437.505/2401.250
AO-85 26 Apr 23:41:51 23:43:12 11° 250° (WSW) 23:44:34 145.980
VELOX 1 26 Apr 23:50:41 23:53:56 20° 64° (ENE) 23:57:10 145.980
UNISAT 6 26 Apr 23:55:20 23:59:34 59° 286° (WNW) 00:03:49 437.425
FO-29 26 Apr 23:59:09 00:04:23 90° 104° (ESE) 00:09:55 435.910
LO-87 26 Apr 23:59:35 00:03:07 47° 261° (W) 00:06:39 145.935 - 145.965
BEESAT 2 27 Apr 00:06:58 00:11:04 78° 238° (WSW) 00:15:05 435.950
POLYITAN 1 27 Apr 00:07:46 00:09:47 13° 91° (E) 00:11:47 437.675
BEESAT 3 27 Apr 00:08:22 00:11:51 29° 245° (WSW) 00:15:18 437.485
AIST 2D 27 Apr 00:11:23 00:14:21 25° 95° (E) 00:17:19 435.315
QB50P2 27 Apr 00:13:45 00:16:31 17° 92° (E) 00:19:15 145.880/145.840
50 SAT 27 Apr 00:33:28 00:36:23 25° 69° (ENE) 00:39:19 437.505
NANOSAT C BR1 27 Apr 00:35:02 00:38:27 24° 95° (E) 00:41:52 145.865
DX 1 27 Apr 00:41:36 00:45:15 26° 67° (ENE) 00:48:54 434.975-435.025
SPROUT 27 Apr 00:51:01 00:55:17 76° 75° (ENE) 00:59:34 437.525
EO-79 27 Apr 01:02:26 01:06:33 53° 100° (E) 01:10:39 145.935-145.965
NO-84 27 Apr 01:03:11 01:04:12 11° 12° (NNE) 01:05:11 435.350 FM
DUCHIFAT 1 27 Apr 01:04:19 01:08:20 45° 99° (E) 01:12:20 145.980
TIGRISAT 27 Apr 01:12:59 01:14:23 11° 299° (WNW) 01:15:48 435.000
ESTCUBE 1 27 Apr 01:15:00 01:18:03 18° 268° (W) 01:21:07 437.505/2401.250
VELOX 1 27 Apr 01:25:50 01:30:04 42° 261° (W) 01:34:21 145.980
POLYITAN 1 27 Apr 01:41:47 01:45:54 54° 287° (WNW) 01:49:59 437.675
UKube-1 27 Apr 01:43:26 01:47:46 82° 74° (ENE) 01:52:08 .
AIST 2D 27 Apr 01:44:49 01:47:26 20° 292° (WNW) 01:50:03 435.315
FO-29 27 Apr 01:46:45 01:48:48 12° 302° (WNW) 01:50:53 435.910
QB50P2 27 Apr 01:48:31 01:52:30 42° 289° (WNW) 01:56:28 145.880/145.840
BUGSAT 1 27 Apr 02:05:24 02:09:25 71° 102° (ESE) 02:13:24 437.445
50 SAT 27 Apr 02:06:45 02:09:18 19° 266° (W) 02:11:52 437.505
NANOSAT C BR1 27 Apr 02:10:31 02:14:10 29° 291° (WNW) 02:17:48 145.865
Oscar 19 27 Apr 02:16:12 02:20:48 31° 96° (E) 02:25:22 437.125/150
DX 1 27 Apr 02:17:27 02:21:19 30° 263° (W) 02:25:14 434.975-435.025
Gurwin Techsat 1B 27 Apr 02:19:58 02:23:50 20° 92° (E) 02:27:41 435.225
MOZHAYETS 4 27 Apr 02:35:28 02:37:11 12° 60° (ENE) 02:38:54
EO-79 27 Apr 02:39:32 02:41:53 15° 297° (WNW) 02:44:14 145.935-145.965
NO-84 27 Apr 02:39:40 02:42:27 38° 34° (NE) 02:45:08 435.350 FM
DUCHIFAT 1 27 Apr 02:40:59 02:43:39 17° 296° (WNW) 02:46:19 145.980
BEESAT 27 Apr 02:41:25 02:45:31 30° 67° (ENE) 02:49:36 436.000
PCSat 27 Apr 02:46:15 02:51:25 48° 114° (ESE) 02:56:38 145.827
ITUPSAT 1 27 Apr 03:21:27 03:26:10 71° 74° (ENE) 03:30:55 437.325
BUGSAT 1 27 Apr 03:43:16 03:44:12 11° 299° (WNW) 03:45:08 437.445
ITAMSAT 1 27 Apr 03:43:22 03:46:48 18° 92° (E) 03:50:14 435.822/435.867
Oscar 19 27 Apr 03:55:25 04:00:06 35° 293° (WNW) 04:04:46 437.125/150
Gurwin Techsat 1B 27 Apr 03:58:55 04:04:06 54° 289° (WNW) 04:09:15 435.225
AO-7 27 Apr 04:02:43 04:09:45 29° 95° (E) 04:16:43 .
MOZHAYETS 4 27 Apr 04:09:08 04:13:41 80° 258° (WSW) 04:18:16
YUBILEINY 27 Apr 04:10:58 04:18:22 33° 83° (E) 04:25:47 435.215
NO-84 27 Apr 04:17:47 04:19:41 16° 232° (SW) 04:21:35 435.350 FM
BEESAT 27 Apr 04:19:01 04:23:12 31° 263° (W) 04:27:26 436.000
KKS-1 27 Apr 04:20:00 04:23:43 26° 67° (ENE) 04:27:26 437.445
PCSat 27 Apr 04:30:21 04:35:02 29° 313° (NW) 04:39:44 145.827
STARS 27 Apr 04:50:59 04:54:32 24° 66° (ENE) 04:58:05 437.465
CUBESAT XI-V 27 Apr 05:00:52 05:05:27 62° 74° (ENE) 05:10:05 437.345
ITUPSAT 1 27 Apr 05:02:26 05:04:29 13° 270° (W) 05:06:34 437.325
ITAMSAT 1 27 Apr 05:21:34 05:26:39 59° 288° (WNW) 05:31:44 435.822/435.867
AO-7 27 Apr 05:54:48 06:03:01 65° 294° (WNW) 06:11:12 .
KKS-1 27 Apr 05:56:09 06:00:08 31° 263° (W) 06:04:09 437.445
YUBILEINY 27 Apr 06:06:13 06:14:42 56° 284° (WNW) 06:23:16 435.215
STARS 27 Apr 06:26:44 06:30:43 33° 263° (W) 06:34:43 437.465
CUTE-I 27 Apr 06:33:29 06:36:32 15° 90° (E) 06:39:34 437.470
DOVE 4 27 Apr 06:34:33 06:38:19 25° 93° (E) 06:41:54 437.250
SO-50 27 Apr 06:34:45 06:38:48 31° 115° (ESE) 06:42:50 436.795
XW-2D 27 Apr 06:37:35 06:39:49 15° 92° (E) 06:42:04 145.860 - 145.880
CUBESAT XI-V 27 Apr 06:40:50 06:43:14 14° 270° (W) 06:45:41 437.345
RS-15 27 Apr 06:42:19 06:52:01 30° 102° (ESE) 07:01:54 29.354- 29.394
XW-2B 27 Apr 06:44:14 06:46:50 17° 93° (E) 06:49:24 145.730 - 145.750
KAITUO 1B 27 Apr 06:52:48 06:55:22 17° 93° (E) 06:57:56 145.475/437.950
LilacSat-2 27 Apr 06:55:14 06:58:26 25° 95° (E) 07:01:38 437.200
XW-2C 27 Apr 06:55:44 06:58:52 24° 95° (E) 07:01:59 145.795 - 145.815
M-CUBED/EXP-1 PRIME 27 Apr 07:20:06 07:24:35 50° 67° (ENE) 07:29:06 437.505
XW-2F 27 Apr 07:20:30 07:24:10 45° 99° (E) 07:27:50 145.980 - 146.000
STRAND 1 27 Apr 07:23:34 07:28:22 43° 69° (ENE) 07:33:11 437.568
NUDT-PHONESAT 27 Apr 07:30:37 07:34:14 48° 100° (E) 07:37:51 437.300
CUTE 1.7 + AOD 2 27 Apr 07:48:28 07:50:43 14° 90° (E) 07:52:56 437.475
AO-7 27 Apr 07:49:34 07:54:13 16° 315° (NW) 07:58:53 .
ISS 27 Apr 07:55:30 07:56:30 11° 130° (SE) 07:57:30 437.550
SEEDS 27 Apr 08:07:27 08:09:48 14° 91° (E) 08:12:09 437.485
XW-2D 27 Apr 08:10:36 08:14:11 39° 288° (WNW) 08:17:45 145.860 - 145.880
YUBILEINY 27 Apr 08:11:27 08:13:50 11° 308° (NW) 08:16:14 435.215
CUTE-I 27 Apr 08:11:48 08:17:05 70° 287° (WNW) 08:22:21 437.470
DOVE 4 27 Apr 08:11:56 08:16:04 32° 292° (WNW) 08:19:59 437.250
SO-50 27 Apr 08:14:59 08:19:12 34° 313° (NW) 08:23:23 436.795
XW-2B 27 Apr 08:17:39 08:21:07 34° 289° (WNW) 08:24:35 145.730 - 145.750
HO-68 27 Apr 08:24:34 08:31:18 41° 98° (E) 08:38:00 435.675
KAITUO 1B 27 Apr 08:26:03 08:29:28 33° 289° (WNW) 08:32:53 145.475/437.950
LilacSat-2 27 Apr 08:29:29 08:32:38 24° 291° (WNW) 08:35:46 437.200
XW-2C 27 Apr 08:29:51 08:32:59 25° 291° (WNW) 08:36:07 145.795 - 145.815
UWE-3 27 Apr 08:44:31 08:47:04 15° 92° (E) 08:49:38 435.000/436.395/437.385
RS-15 27 Apr 08:51:02 09:03:11 82° 305° (NW) 09:15:40 29.354- 29.394
XW-2F 27 Apr 08:55:54 08:57:56 14° 295° (WNW) 08:59:58 145.980 - 146.000
M-CUBED/EXP-1 PRIME 27 Apr 08:55:54 08:59:12 19° 263° (W) 09:02:33 437.505
CUBEBUG 2 27 Apr 08:57:49 09:01:39 35° 97° (E) 09:05:31 437.445
STRAND 1 27 Apr 09:03:39 09:07:42 24° 266° (W) 09:11:46 437.568
Tancredo 1 27 Apr 09:04:05 09:07:09 67° 143° (SE) 09:10:14 437.200
XW-2A 27 Apr 09:05:47 09:09:08 67° 284° (WNW) 09:12:28 145.665 - 145.685
NUDT-PHONESAT 27 Apr 09:06:04 09:07:44 13° 296° (WNW) 09:09:24 437.300
AAUSAT CUBESAT 2 27 Apr 09:12:35 09:16:27 35° 97° (E) 09:20:17 437.432
UNISAT 6 27 Apr 09:20:37 09:22:48 14° 62° (ENE) 09:24:56 437.425
CUTE 1.7 + AOD 2 27 Apr 09:22:40 09:26:52 54° 287° (WNW) 09:31:03 437.475
ISS 27 Apr 09:29:15 09:32:31 89° 129° (SE) 09:35:48 437.550
ZACube-1 27 Apr 09:37:43 09:41:34 34° 97° (E) 09:45:29 437.345
SEEDS 27 Apr 09:41:38 09:45:47 51° 287° (WNW) 09:49:54 437.485
AO-73 27 Apr 09:44:12 09:48:07 36° 98° (E) 09:52:05 145.935
PCSat 27 Apr 09:51:54 09:53:30 11° 32° (NNE) 09:55:07 145.827
DELFI C3 27 Apr 09:54:27 09:54:48 10° 89° (E) 09:55:10 145.870
CUTE-I 27 Apr 09:55:20 09:56:09 10° 305° (NW) 09:56:59 437.470
Oscar 11 27 Apr 09:59:01 10:03:11 44° 99° (E) 10:07:21 .
PRISM 27 Apr 10:10:38 10:14:46 73° 76° (ENE) 10:18:57 437.425
FO-29 27 Apr 10:12:10 10:17:59 43° 70° (ENE) 10:23:14 435.910
HO-68 27 Apr 10:12:22 10:18:59 42° 296° (WNW) 10:25:37 435.675
UWE-3 27 Apr 10:19:45 10:23:45 46° 288° (WNW) 10:27:50 435.000/436.395/437.385
OBJECT BX 27 Apr 10:24:47 10:27:11 16° 93° (E) 10:29:34 145.990 - 145.960
TIGRISAT 27 Apr 10:33:13 10:37:34 71° 75° (ENE) 10:41:51 435.000
CUBEBUG 2 27 Apr 10:34:58 10:38:05 21° 293° (WNW) 10:41:12 437.445
Tancredo 1 27 Apr 10:40:40 10:43:17 24° 342° (NNW) 10:45:54 437.200
AIST 2D 27 Apr 10:48:23 10:49:35 11° 65° (ENE) 10:50:48 435.315
AAUSAT CUBESAT 2 27 Apr 10:48:32 10:51:41 21° 294° (WNW) 10:54:49 437.432
UNISAT 6 27 Apr 10:54:40 10:59:01 62° 259° (WSW) 11:03:19 437.425
O/OREOS (USA 219) 27 Apr 11:01:21 11:05:55 72° 110° (ESE) 11:10:31 437.305
POLYITAN 1 27 Apr 11:01:54 11:03:37 12° 62° (ENE) 11:05:21 437.675
ISS 27 Apr 11:06:39 11:09:21 23° 345° (NNW) 11:12:01 437.550
RS-15 27 Apr 11:07:00 11:17:51 34° 333° (NNW) 11:28:49 29.354- 29.394
QB50P2 27 Apr 11:07:41 11:10:10 15° 63° (ENE) 11:12:39 145.880/145.840
ZACube-1 27 Apr 11:14:25 11:17:40 22° 293° (WNW) 11:20:57 437.345
AO-73 27 Apr 11:20:59 11:24:08 21° 293° (WNW) 11:27:19 145.935
DELFI C3 27 Apr 11:26:01 11:30:00 65° 286° (WNW) 11:33:57 145.870
LO-87 27 Apr 11:27:21 11:28:45 12° 91° (E) 11:30:09 145.935 - 145.965
NANOSAT C BR1 27 Apr 11:28:09 11:31:18 21° 66° (ENE) 11:34:28 145.865
PCSat 27 Apr 11:33:02 11:38:18 48° 53° (NE) 11:43:32 145.827
Oscar 11 27 Apr 11:36:00 11:39:00 18° 295° (WNW) 11:41:59 .
EO-79 27 Apr 11:55:23 11:59:23 44° 72° (ENE) 12:03:24 145.935-145.965
DUCHIFAT 1 27 Apr 11:56:44 12:00:35 37° 71° (ENE) 12:04:27 145.980
OBJECT BX 27 Apr 11:57:39 12:00:57 32° 289° (WNW) 12:04:15 145.990 - 145.960
FO-29 27 Apr 11:57:49 12:03:10 29° 264° (W) 12:08:04 435.910
TIGRISAT 27 Apr 12:13:45 12:14:42 11° 271° (W) 12:15:39 435.000
AO-85 27 Apr 12:16:01 12:18:45 17° 112° (ESE) 12:21:23 145.980
Tancredo 1 27 Apr 12:17:52 12:19:57 16° 2° (N) 12:22:02 437.200
AIST 2D 27 Apr 12:19:03 12:22:24 45° 261° (W) 12:25:46 435.315
POLYITAN 1 27 Apr 12:34:40 12:38:51 67° 258° (WSW) 12:43:03 437.675
SPROUT 27 Apr 12:37:51 12:39:24 12° 90° (E) 12:40:57 437.525
QB50P2 27 Apr 12:41:25 12:45:32 51° 260° (W) 12:49:41 145.880/145.840
O/OREOS (USA 219) 27 Apr 12:43:12 12:45:52 15° 309° (NW) 12:48:32 437.305
ISS 27 Apr 12:44:17 12:46:39 18° 5° (N) 12:49:00 437.550
BUGSAT 1 27 Apr 12:55:28 12:59:31 54° 73° (ENE) 13:03:31 437.445
LO-87 27 Apr 12:59:02 13:02:26 42° 287° (WNW) 13:05:47 145.935 - 145.965
NANOSAT C BR1 27 Apr 13:02:56 13:06:48 35° 262° (W) 13:10:41 145.865
ESTCUBE 1 27 Apr 13:04:33 13:09:08 90° 233° (SW) 13:13:40 437.505/2401.250
VELOX 1 27 Apr 13:14:51 13:18:51 32° 97° (E) 13:22:47 145.980
PCSat 27 Apr 13:16:58 13:21:24 26° 252° (WSW) 13:25:49 145.827
AO-7 27 Apr 13:17:30 13:19:35 11° 39° (NE) 13:21:39 .
RS-15 27 Apr 13:25:32 13:35:29 27° 8° (N) 13:45:15 29.354- 29.394
50 SAT 27 Apr 13:28:39 13:31:29 23° 96° (E) 13:34:18 437.505
UKube-1 27 Apr 13:31:25 13:33:15 12° 90° (E) 13:35:04 .
EO-79 27 Apr 13:32:40 13:35:21 16° 268° (W) 13:38:04 145.935-145.965
DUCHIFAT 1 27 Apr 13:33:22 13:36:23 19° 267° (W) 13:39:24 145.980
Oscar 19 27 Apr 13:33:43 13:38:39 49° 71° (ENE) 13:43:39 437.125/150
Gurwin Techsat 1B 27 Apr 13:41:35 13:46:23 35° 67° (ENE) 13:51:11 435.225
Tancredo 1 27 Apr 13:53:44 13:56:33 30° 23° (NNE) 13:59:22 437.200
AO-85 27 Apr 13:54:40 13:58:48 50° 307° (NW) 14:02:44 145.980
BEESAT 3 27 Apr 13:58:23 14:01:57 34° 116° (ESE) 14:05:34 437.485
BEESAT 2 27 Apr 14:00:49 14:02:51 14° 109° (ESE) 14:04:54 435.950
DX 1 27 Apr 14:04:06 14:08:14 40° 99° (E) 14:12:19 434.975-435.025
SPROUT 27 Apr 14:11:31 14:15:43 62° 286° (WNW) 14:19:53 437.525
YUBILEINY 27 Apr 14:19:53 14:25:13 17° 58° (ENE) 14:30:32 435.215
ISS 27 Apr 14:20:40 14:23:46 39° 25° (NNE) 14:26:52 437.550
BUGSAT 1 27 Apr 14:33:14 14:35:10 13° 269° (W) 14:37:07 437.445
ESTCUBE 1 27 Apr 14:44:12 14:45:12 11° 301° (WNW) 14:46:11 437.505/2401.250
VELOX 1 27 Apr 14:51:31 14:55:09 25° 294° (WNW) 14:58:45 145.980
50 SAT 27 Apr 15:01:37 15:04:18 21° 292° (WNW) 15:06:59 437.505
ITAMSAT 1 27 Apr 15:01:48 15:06:19 31° 66° (ENE) 15:10:50 435.822/435.867
AO-7 27 Apr 15:02:32 15:10:14 45° 61° (ENE) 15:17:58 .
SO-50 27 Apr 15:04:41 15:08:53 37° 48° (NE) 15:13:04 436.795
UKube-1 27 Apr 15:05:24 15:09:40 61° 287° (WNW) 15:13:55 .
Oscar 19 27 Apr 15:14:21 15:18:14 21° 267° (W) 15:22:09 437.125/150
Gurwin Techsat 1B 27 Apr 15:21:39 15:26:20 31° 264° (W) 15:31:02 435.225
ITUPSAT 1 27 Apr 15:22:05 15:25:09 17° 92° (E) 15:28:12 437.325
Tancredo 1 27 Apr 15:29:34 15:32:30 40° 220° (SW) 15:35:26 437.200
BEESAT 2 27 Apr 15:36:13 15:40:07 56° 307° (NW) 15:44:07 435.950
BEESAT 3 27 Apr 15:36:16 15:39:35 25° 314° (NW) 15:42:58 437.485
RS-15 27 Apr 15:40:13 15:52:05 49° 40° (NE) 16:03:26 29.354- 29.394
DX 1 27 Apr 15:40:57 15:44:08 20° 295° (WNW) 15:47:17 434.975-435.025
ISS 27 Apr 15:57:17 16:00:12 30° 222° (SW) 16:03:06 437.550
MOZHAYETS 4 27 Apr 16:03:43 16:07:20 22° 94° (E) 16:10:56
YUBILEINY 27 Apr 16:14:49 16:23:38 78° 81° (E) 16:32:26 435.215
BEESAT 27 Apr 16:17:18 16:22:02 60° 102° (ESE) 16:26:45 436.000
ITAMSAT 1 27 Apr 16:40:59 16:45:41 35° 263° (W) 16:50:25 435.822/435.867
SO-50 27 Apr 16:45:24 16:49:12 27° 246° (WSW) 16:53:00 436.795
